owner,sensor,date,latitude,longitude,vertical_datum,wind_speed,wind_to_direction,wind_speed_of_gust,qcFlag 
DISL,ioos:station:DISL:MBLA:1,2015-02-01T00:00:00Z,30.4367,-88.0117,14.2,5.0,93.6,-9999.0,'1111122,1111122,1111122' 
DISL,ioos:station:DISL:MBLA:1,2015-02-01T00:30:00Z,30.4367,-88.0117,14.2,5.06,84.0,-9999.0,'1111122,1111122,1111122' 
DISL,ioos:station:DISL:MBLA:1,2015-02-01T01:00:00Z,30.4367,-88.0117,14.2,4.94,71.72,-9999.0,'1111122,1111122,1111122' 
DISL,ioos:station:DISL:MBLA:1,2015-02-01T01:30:00Z,30.4367,-88.0117,14.2,5.38,80.5,-9999.0,'1111122,1111122,1111122' 
DISL,ioos:station:DISL:MBLA:1,2015-02-01T02:00:00Z,30.4367,-88.0117,14.2,4.58,82.6,-9999.0,'1111122,1111122,1111122' 
DISL,ioos:station:DISL:MBLA:1,2015-02-01T02:30:00Z,30.4367,-88.0117,14.2,5.57,84.5,-9999.0,'1111122,1111122,1111122' 
DISL,ioos:station:DISL:MBLA:1,2015-02-01T03:00:00Z,30.4367,-88.0117,14.2,4.3,98.7,-9999.0,'1111122,1111122,1111122' 
DISL,ioos:station:DISL:MBLA:1,2015-02-01T03:30:00Z,30.4367,-88.0117,14.2,4.72,98.8,-9999.0,'1111122,1111122,1111122' 
DISL,ioos:station:DISL:MBLA:1,2015-02-01T04:00:00Z,30.4367,-88.0117,14.2,3.49,86.0,-9999.0,'1111122,1111122,1111122' 
DISL,ioos:station:DISL:MBLA:1,2015-02-01T04:30:00Z,30.4367,-88.0117,14.2,3.0,72.95,-9999.0,'1111122,1111122,1111122' 
DISL,ioos:station:DISL:MBLA:1,2015-02-01T05:00:00Z,30.4367,-88.0117,14.2,3.12,72.77,-9999.0,'1111122,1111122,1111122' 
DISL,ioos:station:DISL:MBLA:1,2015-02-01T05:30:00Z,30.4367,-88.0117,14.2,2.3,77.53,-9999.0,'1111122,1111122,1111122' 
DISL,ioos:station:DISL:MBLA:1,2015-02-01T06:00:00Z,30.4367,-88.0117,14.2,3.06,71.61,-9999.0,'1111122,1111122,1111122' 
DISL,ioos:station:DISL:MBLA:1,2015-02-01T06:30:00Z,30.4367,-88.0117,14.2,3.15,73.66,-9999.0,'1111122,1111122,1111122' 
DISL,ioos:station:DISL:MBLA:1,2015-02-01T07:00:00Z,30.4367,-88.0117,14.2,3.58,74.71,-9999.0,'1111122,1111122,1111122' 
DISL,ioos:station:DISL:MBLA:1,2015-02-01T07:30:00Z,30.4367,-88.0117,14.2,4.03,72.95,-9999.0,'1111122,1111122,1111122' 
DISL,ioos:station:DISL:MBLA:1,2015-02-01T08:00:00Z,30.4367,-88.0117,14.2,4.35,81.4,-9999.0,'1111122,1111122,1111122' 
DISL,ioos:station:DISL:MBLA:1,2015-02-01T08:30:00Z,30.4367,-88.0117,14.2,4.25,88.8,-9999.0,'1111122,1111122,1111122' 
DISL,ioos:station:DISL:MBLA:1,2015-02-01T09:00:00Z,30.4367,-88.0117,14.2,5.27,90.2,-9999.0,'1111122,1111122,1111122' 
DISL,ioos:station:DISL:MBLA:1,2015-02-01T09:30:00Z,30.4367,-88.0117,14.2,4.78,92.2,-9999.0,'1111122,1111122,1111122' 
DISL,ioos:station:DISL:MBLA:1,2015-02-01T10:00:00Z,30.4367,-88.0117,14.2,5.55,100.4,-9999.0,'1111122,1111122,1111122' 
DISL,ioos:station:DISL:MBLA:1,2015-02-01T10:30:00Z,30.4367,-88.0117,14.2,4.42,89.6,-9999.0,'1111122,1111122,1111122' 
DISL,ioos:station:DISL:MBLA:1,2015-02-01T11:00:00Z,30.4367,-88.0117,14.2,5.48,105.8,-9999.0,'1111122,1111122,1111122' 
DISL,ioos:station:DISL:MBLA:1,2015-02-01T11:30:00Z,30.4367,-88.0117,14.2,5.55,103.6,-9999.0,'1111122,1111122,1111122' 
DISL,ioos:station:DISL:MBLA:1,2015-02-01T12:00:00Z,30.4367,-88.0117,14.2,5.89,104.4,-9999.0,'1111122,1111122,1111122' 
DISL,ioos:station:DISL:MBLA:1,2015-02-01T12:30:00Z,30.4367,-88.0117,14.2,4.14,95.1,-9999.0,'1111122,1111122,1111122' 
DISL,ioos:station:DISL:MBLA:1,2015-02-01T13:00:00Z,30.4367,-88.0117,14.2,3.83,64.79,-9999.0,'1111122,1111122,1111122' 
DISL,ioos:station:DISL:MBLA:1,2015-02-01T13:30:00Z,30.4367,-88.0117,14.2,3.33,78.23,-9999.0,'1111122,1111122,1111122' 
DISL,ioos:station:DISL:MBLA:1,2015-02-01T14:00:00Z,30.4367,-88.0117,14.2,4.58,103.3,-9999.0,'1111122,1111122,1111122' 
DISL,ioos:station:DISL:MBLA:1,2015-02-01T14:30:00Z,30.4367,-88.0117,14.2,5.09,112.4,-9999.0,'1111122,1111122,1111122' 
DISL,ioos:station:DISL:MBLA:1,2015-02-01T15:00:00Z,30.4367,-88.0117,14.2,6.24,119.7,-9999.0,'1111122,1111122,1111122' 
DISL,ioos:station:DISL:MBLA:1,2015-02-01T15:30:00Z,30.4367,-88.0117,14.2,7.34,128.2,-9999.0,'1111122,1111122,1111122' 
DISL,ioos:station:DISL:MBLA:1,2015-02-01T16:00:00Z,30.4367,-88.0117,14.2,6.41,144.7,-9999.0,'1111122,1111122,1111122' 
DISL,ioos:station:DISL:MBLA:1,2015-02-01T16:30:00Z,30.4367,-88.0117,14.2,7.27,142.8,-9999.0,'1111122,1111122,1111122' 
DISL,ioos:station:DISL:MBLA:1,2015-02-01T17:00:00Z,30.4367,-88.0117,14.2,7.17,153.6,-9999.0,'1111122,1111122,1111122' 
DISL,ioos:station:DISL:MBLA:1,2015-02-01T17:30:00Z,30.4367,-88.0117,14.2,5.45,151.8,-9999.0,'1111122,1111122,1111122' 
DISL,ioos:station:DISL:MBLA:1,2015-02-01T18:00:00Z,30.4367,-88.0117,14.2,7.52,160.2,-9999.0,'1111122,1111122,1111122' 
DISL,ioos:station:DISL:MBLA:1,2015-02-01T18:30:00Z,30.4367,-88.0117,14.2,7.78,164.6,-9999.0,'1111122,1111122,1111122' 
DISL,ioos:station:DISL:MBLA:1,2015-02-01T19:00:00Z,30.4367,-88.0117,14.2,6.75,169.7,-9999.0,'1111122,1111122,1111122' 
DISL,ioos:station:DISL:MBLA:1,2015-02-01T19:30:00Z,30.4367,-88.0117,14.2,6.26,172.8,-9999.0,'1111122,1111122,1111122' 
DISL,ioos:station:DISL:MBLA:1,2015-02-01T20:00:00Z,30.4367,-88.0117,14.2,4.68,167.1,-9999.0,'1111122,1111122,1111122' 
DISL,ioos:station:DISL:MBLA:1,2015-02-01T20:30:00Z,30.4367,-88.0117,14.2,3.89,189.2,-9999.0,'1111122,1111122,1111122' 
DISL,ioos:station:DISL:MBLA:1,2015-02-01T21:00:00Z,30.4367,-88.0117,14.2,3.23,189.8,-9999.0,'1111122,1111122,1111122' 
DISL,ioos:station:DISL:MBLA:1,2015-02-01T21:30:00Z,30.4367,-88.0117,14.2,3.85,206.4,-9999.0,'1111122,1111122,1111122' 
DISL,ioos:station:DISL:MBLA:1,2015-02-01T22:00:00Z,30.4367,-88.0117,14.2,5.18,210.6,-9999.0,'1111122,1111122,1111122' 
DISL,ioos:station:DISL:MBLA:1,2015-02-01T22:30:00Z,30.4367,-88.0117,14.2,4.09,182.9,-9999.0,'1111122,1111122,1111122' 
DISL,ioos:station:DISL:MBLA:1,2015-02-01T23:00:00Z,30.4367,-88.0117,14.2,1.64,139.3,-9999.0,'1111122,1111122,1111122' 
DISL,ioos:station:DISL:MBLA:1,2015-02-01T23:30:00Z,30.4367,-88.0117,14.2,0.51,117.8,-9999.0,'1111122,1111122,1111122' 
DISL,ioos:station:DISL:MBLA:1,2015-02-02T00:00:00Z,30.4367,-88.0117,14.2,0.17,138.7,-9999.0,'1111122,1111122,1111122' 
DISL,ioos:station:DISL:MBLA:1,2015-02-02T00:30:00Z,30.4367,-88.0117,14.2,2.12,178.4,-9999.0,'1111122,1111122,1111122' 
DISL,ioos:station:DISL:MBLA:1,2015-02-02T01:00:00Z,30.4367,-88.0117,14.2,3.3,189.6,-9999.0,'1111122,1111122,1111122' 
DISL,ioos:station:DISL:MBLA:1,2015-02-02T01:30:00Z,30.4367,-88.0117,14.2,4.97,202.5,-9999.0,'1111122,1111122,1111122' 
DISL,ioos:station:DISL:MBLA:1,2015-02-02T02:00:00Z,30.4367,-88.0117,14.2,5.41,205.3,-9999.0,'1111122,1111122,1111122' 
DISL,ioos:station:DISL:MBLA:1,2015-02-02T02:30:00Z,30.4367,-88.0117,14.2,5.57,199.3,-9999.0,'1111122,1111122,1111122' 
DISL,ioos:station:DISL:MBLA:1,2015-02-02T03:00:00Z,30.4367,-88.0117,14.2,5.86,215.9,-9999.0,'1111122,1111122,1111122' 
DISL,ioos:station:DISL:MBLA:1,2015-02-02T03:30:00Z,30.4367,-88.0117,14.2,5.64,201.9,-9999.0,'1111122,1111122,1111122' 
DISL,ioos:station:DISL:MBLA:1,2015-02-02T04:00:00Z,30.4367,-88.0117,14.2,6.46,211.2,-9999.0,'1111122,1111122,1111122' 
DISL,ioos:station:DISL:MBLA:1,2015-02-02T04:30:00Z,30.4367,-88.0117,14.2,9.64,232.2,-9999.0,'1111122,1111122,1111122' 
DISL,ioos:station:DISL:MBLA:1,2015-02-02T05:00:00Z,30.4367,-88.0117,14.2,12.45,240.0,-9999.0,'1111122,1111122,1111122' 
DISL,ioos:station:DISL:MBLA:1,2015-02-02T05:30:00Z,30.4367,-88.0117,14.2,9.68,239.2,-9999.0,'1111122,1111122,1111122' 
DISL,ioos:station:DISL:MBLA:1,2015-02-02T06:00:00Z,30.4367,-88.0117,14.2,8.95,250.2,-9999.0,'1111122,1111122,1111122' 
DISL,ioos:station:DISL:MBLA:1,2015-02-02T06:30:00Z,30.4367,-88.0117,14.2,11.37,322.6,-9999.0,'1111122,1111122,1111122' 
DISL,ioos:station:DISL:MBLA:1,2015-02-02T07:00:00Z,30.4367,-88.0117,14.2,9.19,330.0,-9999.0,'1111122,1111122,1111122' 
DISL,ioos:station:DISL:MBLA:1,2015-02-02T07:30:00Z,30.4367,-88.0117,14.2,8.38,330.1,-9999.0,'1111122,1111122,1111122' 
DISL,ioos:station:DISL:MBLA:1,2015-02-02T08:00:00Z,30.4367,-88.0117,14.2,8.26,332.2,-9999.0,'1111122,1111122,1111122' 
DISL,ioos:station:DISL:MBLA:1,2015-02-02T08:30:00Z,30.4367,-88.0117,14.2,8.45,326.5,-9999.0,'1111122,1111122,1111122' 
DISL,ioos:station:DISL:MBLA:1,2015-02-02T09:00:00Z,30.4367,-88.0117,14.2,8.93,328.7,-9999.0,'1111122,1111122,1111122' 
DISL,ioos:station:DISL:MBLA:1,2015-02-02T09:30:00Z,30.4367,-88.0117,14.2,10.36,338.8,-9999.0,'1111122,1111122,1111122' 
DISL,ioos:station:DISL:MBLA:1,2015-02-02T10:00:00Z,30.4367,-88.0117,14.2,10.64,320.2,-9999.0,'1111122,1111122,1111122' 
DISL,ioos:station:DISL:MBLA:1,2015-02-02T10:30:00Z,30.4367,-88.0117,14.2,9.15,316.6,-9999.0,'1111122,1111122,1111122' 
DISL,ioos:station:DISL:MBLA:1,2015-02-02T11:00:00Z,30.4367,-88.0117,14.2,9.21,314.3,-9999.0,'1111122,1111122,1111122' 
DISL,ioos:station:DISL:MBLA:1,2015-02-02T11:30:00Z,30.4367,-88.0117,14.2,13.11,339.1,-9999.0,'1111122,1111122,1111122' 
DISL,ioos:station:DISL:MBLA:1,2015-02-02T12:00:00Z,30.4367,-88.0117,14.2,13.85,323.2,-9999.0,'1111122,1111122,1111122' 
DISL,ioos:station:DISL:MBLA:1,2015-02-02T12:30:00Z,30.4367,-88.0117,14.2,15.93,325.3,-9999.0,'1111122,1111122,1111122' 
DISL,ioos:station:DISL:MBLA:1,2015-02-02T13:00:00Z,30.4367,-88.0117,14.2,15.4,328.1,-9999.0,'1111122,1111122,1111122' 
DISL,ioos:station:DISL:MBLA:1,2015-02-02T13:30:00Z,30.4367,-88.0117,14.2,15.17,333.5,-9999.0,'1111122,1111122,1111122' 
DISL,ioos:station:DISL:MBLA:1,2015-02-02T14:00:00Z,30.4367,-88.0117,14.2,14.06,335.9,-9999.0,'1111122,1111122,1111122' 
DISL,ioos:station:DISL:MBLA:1,2015-02-02T14:30:00Z,30.4367,-88.0117,14.2,13.42,335.4,-9999.0,'1111122,1111122,1111122' 
DISL,ioos:station:DISL:MBLA:1,2015-02-02T15:00:00Z,30.4367,-88.0117,14.2,13.37,340.4,-9999.0,'1111122,1111122,1111122' 
DISL,ioos:station:DISL:MBLA:1,2015-02-02T15:30:00Z,30.4367,-88.0117,14.2,13.93,341.8,-9999.0,'1111122,1111122,1111122' 
DISL,ioos:station:DISL:MBLA:1,2015-02-02T16:00:00Z,30.4367,-88.0117,14.2,12.64,350.9,-9999.0,'1111122,1111122,1111122' 
DISL,ioos:station:DISL:MBLA:1,2015-02-02T16:30:00Z,30.4367,-88.0117,14.2,11.56,352.2,-9999.0,'1111122,1111122,1111122' 
DISL,ioos:station:DISL:MBLA:1,2015-02-02T17:00:00Z,30.4367,-88.0117,14.2,11.51,356.4,-9999.0,'1111122,1111122,1111122' 
DISL,ioos:station:DISL:MBLA:1,2015-02-02T17:30:00Z,30.4367,-88.0117,14.2,10.32,358.8,-9999.0,'1111122,1111122,1111122' 
DISL,ioos:station:DISL:MBLA:1,2015-02-02T18:00:00Z,30.4367,-88.0117,14.2,9.15,350.2,-9999.0,'1111122,1111122,1111122' 
DISL,ioos:station:DISL:MBLA:1,2015-02-02T18:30:00Z,30.4367,-88.0117,14.2,11.08,8.28,-9999.0,'1111122,1111122,1111122' 
DISL,ioos:station:DISL:MBLA:1,2015-02-02T19:00:00Z,30.4367,-88.0117,14.2,10.85,352.8,-9999.0,'1111122,1111122,1111122' 
DISL,ioos:station:DISL:MBLA:1,2015-02-02T19:30:00Z,30.4367,-88.0117,14.2,10.23,8.72,-9999.0,'1111122,1111122,1111122' 
DISL,ioos:station:DISL:MBLA:1,2015-02-02T20:00:00Z,30.4367,-88.0117,14.2,9.78,4.387,-9999.0,'1111122,1111122,1111122' 
DISL,ioos:station:DISL:MBLA:1,2015-02-02T20:30:00Z,30.4367,-88.0117,14.2,9.58,6.175,-9999.0,'1111122,1111122,1111122' 
DISL,ioos:station:DISL:MBLA:1,2015-02-02T21:00:00Z,30.4367,-88.0117,14.2,9.34,4.76,-9999.0,'1111122,1111122,1111122' 
DISL,ioos:station:DISL:MBLA:1,2015-02-02T21:30:00Z,30.4367,-88.0117,14.2,9.24,10.83,-9999.0,'1111122,1111122,1111122' 
DISL,ioos:station:DISL:MBLA:1,2015-02-02T22:00:00Z,30.4367,-88.0117,14.2,8.74,4.738,-9999.0,'1111122,1111122,1111122' 
DISL,ioos:station:DISL:MBLA:1,2015-02-02T22:30:00Z,30.4367,-88.0117,14.2,9.09,7.315,-9999.0,'1111122,1111122,1111122' 
DISL,ioos:station:DISL:MBLA:1,2015-02-02T23:00:00Z,30.4367,-88.0117,14.2,9.24,15.11,-9999.0,'1111122,1111122,1111122' 
DISL,ioos:station:DISL:MBLA:1,2015-02-02T23:30:00Z,30.4367,-88.0117,14.2,8.78,13.27,-9999.0,'1111122,1111122,1111122' 
DISL,ioos:station:DISL:MBLA:1,2015-02-03T00:00:00Z,30.4367,-88.0117,14.2,8.36,14.5,-9999.0,'1111122,1111122,1111122' 
DISL,ioos:station:DISL:MBLA:1,2015-02-03T00:30:00Z,30.4367,-88.0117,14.2,8.47,8.6,-9999.0,'1111122,1111122,1111122' 
DISL,ioos:station:DISL:MBLA:1,2015-02-03T01:00:00Z,30.4367,-88.0117,14.2,9.3,353.6,-9999.0,'1111122,1111122,1111122' 
DISL,ioos:station:DISL:MBLA:1,2015-02-03T01:30:00Z,30.4367,-88.0117,14.2,7.8,22.74,-9999.0,'1111122,1111122,1111122' 
DISL,ioos:station:DISL:MBLA:1,2015-02-03T02:00:00Z,30.4367,-88.0117,14.2,8.66,28.56,-9999.0,'1111122,1111122,1111122' 
DISL,ioos:station:DISL:MBLA:1,2015-02-03T02:30:00Z,30.4367,-88.0117,14.2,8.76,27.38,-9999.0,'1111122,1111122,1111122' 
DISL,ioos:station:DISL:MBLA:1,2015-02-03T03:00:00Z,30.4367,-88.0117,14.2,8.48,35.99,-9999.0,'1111122,1111122,1111122' 
DISL,ioos:station:DISL:MBLA:1,2015-02-03T03:30:00Z,30.4367,-88.0117,14.2,7.75,35.38,-9999.0,'1111122,1111122,1111122' 
DISL,ioos:station:DISL:MBLA:1,2015-02-03T04:00:00Z,30.4367,-88.0117,14.2,8.75,31.88,-9999.0,'1111122,1111122,1111122' 
DISL,ioos:station:DISL:MBLA:1,2015-02-03T04:30:00Z,30.4367,-88.0117,14.2,9.86,17.96,-9999.0,'1111122,1111122,1111122' 
DISL,ioos:station:DISL:MBLA:1,2015-02-03T05:00:00Z,30.4367,-88.0117,14.2,8.92,20.62,-9999.0,'1111122,1111122,1111122' 
DISL,ioos:station:DISL:MBLA:1,2015-02-03T05:30:00Z,30.4367,-88.0117,14.2,8.85,20.85,-9999.0,'1111122,1111122,1111122' 
DISL,ioos:station:DISL:MBLA:1,2015-02-03T06:00:00Z,30.4367,-88.0117,14.2,9.77,17.35,-9999.0,'1111122,1111122,1111122' 
DISL,ioos:station:DISL:MBLA:1,2015-02-03T06:30:00Z,30.4367,-88.0117,14.2,10.4,15.66,-9999.0,'1111122,1111122,1111122' 
DISL,ioos:station:DISL:MBLA:1,2015-02-03T07:00:00Z,30.4367,-88.0117,14.2,10.11,13.88,-9999.0,'1111122,1111122,1111122' 
DISL,ioos:station:DISL:MBLA:1,2015-02-03T07:30:00Z,30.4367,-88.0117,14.2,10.48,14.87,-9999.0,'1111122,1111122,1111122' 
DISL,ioos:station:DISL:MBLA:1,2015-02-03T08:00:00Z,30.4367,-88.0117,14.2,10.73,15.72,-9999.0,'1111122,1111122,1111122' 
DISL,ioos:station:DISL:MBLA:1,2015-02-03T08:30:00Z,30.4367,-88.0117,14.2,11.77,16.0,-9999.0,'1111122,1111122,1111122' 
DISL,ioos:station:DISL:MBLA:1,2015-02-03T09:00:00Z,30.4367,-88.0117,14.2,11.72,20.71,-9999.0,'1111122,1111122,1111122' 
DISL,ioos:station:DISL:MBLA:1,2015-02-03T09:30:00Z,30.4367,-88.0117,14.2,11.27,25.05,-9999.0,'1111122,1111122,1111122' 
DISL,ioos:station:DISL:MBLA:1,2015-02-03T10:00:00Z,30.4367,-88.0117,14.2,10.99,30.94,-9999.0,'1111122,1111122,1111122' 
DISL,ioos:station:DISL:MBLA:1,2015-02-03T10:30:00Z,30.4367,-88.0117,14.2,10.06,25.77,-9999.0,'1111122,1111122,1111122' 
DISL,ioos:station:DISL:MBLA:1,2015-02-03T11:00:00Z,30.4367,-88.0117,14.2,9.37,33.4,-9999.0,'1111122,1111122,1111122' 
DISL,ioos:station:DISL:MBLA:1,2015-02-03T11:30:00Z,30.4367,-88.0117,14.2,10.27,31.56,-9999.0,'1111122,1111122,1111122' 
DISL,ioos:station:DISL:MBLA:1,2015-02-03T12:00:00Z,30.4367,-88.0117,14.2,10.03,31.88,-9999.0,'1111122,1111122,1111122' 
DISL,ioos:station:DISL:MBLA:1,2015-02-03T12:30:00Z,30.4367,-88.0117,14.2,10.48,36.52,-9999.0,'1111122,1111122,1111122' 
DISL,ioos:station:DISL:MBLA:1,2015-02-03T13:00:00Z,30.4367,-88.0117,14.2,8.82,45.87,-9999.0,'1111122,1111122,1111122' 
DISL,ioos:station:DISL:MBLA:1,2015-02-03T13:30:00Z,30.4367,-88.0117,14.2,8.04,46.51,-9999.0,'1111122,1111122,1111122' 
DISL,ioos:station:DISL:MBLA:1,2015-02-03T14:00:00Z,30.4367,-88.0117,14.2,6.76,40.84,-9999.0,'1111122,1111122,1111122' 
DISL,ioos:station:DISL:MBLA:1,2015-02-03T14:30:00Z,30.4367,-88.0117,14.2,6.13,44.95,-9999.0,'1111122,1111122,1111122' 
DISL,ioos:station:DISL:MBLA:1,2015-02-03T15:00:00Z,30.4367,-88.0117,14.2,5.66,49.6,-9999.0,'1111122,1111122,1111122' 
DISL,ioos:station:DISL:MBLA:1,2015-02-03T15:30:00Z,30.4367,-88.0117,14.2,3.67,51.1,-9999.0,'1111122,1111122,1111122' 
DISL,ioos:station:DISL:MBLA:1,2015-02-03T16:00:00Z,30.4367,-88.0117,14.2,2.7,38.35,-9999.0,'1111122,1111122,1111122' 
DISL,ioos:station:DISL:MBLA:1,2015-02-03T16:30:00Z,30.4367,-88.0117,14.2,3.14,26.4,-9999.0,'1111122,1111122,1111122' 
DISL,ioos:station:DISL:MBLA:1,2015-02-03T17:00:00Z,30.4367,-88.0117,14.2,3.08,36.02,-9999.0,'1111122,1111122,1111122' 
DISL,ioos:station:DISL:MBLA:1,2015-02-03T17:30:00Z,30.4367,-88.0117,14.2,2.9,30.53,-9999.0,'1111122,1111122,1111122' 
DISL,ioos:station:DISL:MBLA:1,2015-02-03T18:00:00Z,30.4367,-88.0117,14.2,3.46,16.05,-9999.0,'1111122,1111122,1111122' 
DISL,ioos:station:DISL:MBLA:1,2015-02-03T18:30:00Z,30.4367,-88.0117,14.2,3.74,355.1,-9999.0,'1111122,1111122,1111122' 
DISL,ioos:station:DISL:MBLA:1,2015-02-03T19:00:00Z,30.4367,-88.0117,14.2,4.22,356.2,-9999.0,'1111122,1111122,1111122' 
DISL,ioos:station:DISL:MBLA:1,2015-02-03T19:30:00Z,30.4367,-88.0117,14.2,3.75,356.4,-9999.0,'1111122,1111122,1111122' 
DISL,ioos:station:DISL:MBLA:1,2015-02-03T20:00:00Z,30.4367,-88.0117,14.2,4.06,357.2,-9999.0,'1111122,1111122,1111122' 
DISL,ioos:station:DISL:MBLA:1,2015-02-03T20:30:00Z,30.4367,-88.0117,14.2,3.97,359.1,-9999.0,'1111122,1111122,1111122' 
DISL,ioos:station:DISL:MBLA:1,2015-02-03T21:00:00Z,30.4367,-88.0117,14.2,3.71,351.5,-9999.0,'1111122,1111122,1111122' 
DISL,ioos:station:DISL:MBLA:1,2015-02-03T21:30:00Z,30.4367,-88.0117,14.2,3.5,352.7,-9999.0,'1111122,1111122,1111122' 
DISL,ioos:station:DISL:MBLA:1,2015-02-03T22:00:00Z,30.4367,-88.0117,14.2,1.76,19.23,-9999.0,'1111122,1111122,1111122' 
DISL,ioos:station:DISL:MBLA:1,2015-02-03T22:30:00Z,30.4367,-88.0117,14.2,2.38,21.29,-9999.0,'1111122,1111122,1111122' 
DISL,ioos:station:DISL:MBLA:1,2015-02-03T23:00:00Z,30.4367,-88.0117,14.2,4.17,36.52,-9999.0,'1111122,1111122,1111122' 
DISL,ioos:station:DISL:MBLA:1,2015-02-03T23:30:00Z,30.4367,-88.0117,14.2,3.58,33.61,-9999.0,'1111122,1111122,1111122' 
DISL,ioos:station:DISL:MBLA:1,2015-02-04T00:00:00Z,30.4367,-88.0117,14.2,4.52,27.37,-9999.0,'1111122,1111122,1111122' 
DISL,ioos:station:DISL:MBLA:1,2015-02-04T00:30:00Z,30.4367,-88.0117,14.2,5.41,8.34,-9999.0,'1111122,1111122,1111122' 
DISL,ioos:station:DISL:MBLA:1,2015-02-04T01:00:00Z,30.4367,-88.0117,14.2,3.39,23.74,-9999.0,'1111122,1111122,1111122' 
DISL,ioos:station:DISL:MBLA:1,2015-02-04T01:30:00Z,30.4367,-88.0117,14.2,3.47,61.17,-9999.0,'1111122,1111122,1111122' 
DISL,ioos:station:DISL:MBLA:1,2015-02-04T02:00:00Z,30.4367,-88.0117,14.2,3.17,63.82,-9999.0,'1111122,1111122,1111122' 
DISL,ioos:station:DISL:MBLA:1,2015-02-04T02:30:00Z,30.4367,-88.0117,14.2,3.23,64.04,-9999.0,'1111122,1111122,1111122' 
DISL,ioos:station:DISL:MBLA:1,2015-02-04T03:00:00Z,30.4367,-88.0117,14.2,2.88,70.56,-9999.0,'1111122,1111122,1111122' 
DISL,ioos:station:DISL:MBLA:1,2015-02-04T03:30:00Z,30.4367,-88.0117,14.2,2.6,74.76,-9999.0,'1111122,1111122,1111122' 
DISL,ioos:station:DISL:MBLA:1,2015-02-04T04:00:00Z,30.4367,-88.0117,14.2,3.34,68.86,-9999.0,'1111122,1111122,1111122' 
DISL,ioos:station:DISL:MBLA:1,2015-02-04T04:30:00Z,30.4367,-88.0117,14.2,3.44,65.55,-9999.0,'1111122,1111122,1111122' 
DISL,ioos:station:DISL:MBLA:1,2015-02-04T05:00:00Z,30.4367,-88.0117,14.2,3.47,63.91,-9999.0,'1111122,1111122,1111122' 
DISL,ioos:station:DISL:MBLA:1,2015-02-04T05:30:00Z,30.4367,-88.0117,14.2,3.79,73.39,-9999.0,'1111122,1111122,1111122' 
DISL,ioos:station:DISL:MBLA:1,2015-02-04T06:00:00Z,30.4367,-88.0117,14.2,3.48,85.8,-9999.0,'1111122,1111122,1111122' 
DISL,ioos:station:DISL:MBLA:1,2015-02-04T06:30:00Z,30.4367,-88.0117,14.2,4.38,90.5,-9999.0,'1111122,1111122,1111122' 
DISL,ioos:station:DISL:MBLA:1,2015-02-04T07:00:00Z,30.4367,-88.0117,14.2,5.19,103.4,-9999.0,'1111122,1111122,1111122' 
DISL,ioos:station:DISL:MBLA:1,2015-02-04T07:30:00Z,30.4367,-88.0117,14.2,5.09,100.4,-9999.0,'1111122,1111122,1111122' 
DISL,ioos:station:DISL:MBLA:1,2015-02-04T08:00:00Z,30.4367,-88.0117,14.2,3.62,89.3,-9999.0,'1111122,1111122,1111122' 
DISL,ioos:station:DISL:MBLA:1,2015-02-04T08:30:00Z,30.4367,-88.0117,14.2,2.94,74.68,-9999.0,'1111122,1111122,1111122' 
DISL,ioos:station:DISL:MBLA:1,2015-02-04T09:00:00Z,30.4367,-88.0117,14.2,3.03,48.44,-9999.0,'1111122,1111122,1111122' 
DISL,ioos:station:DISL:MBLA:1,2015-02-04T09:30:00Z,30.4367,-88.0117,14.2,3.32,32.62,-9999.0,'1111122,1111122,1111122' 
DISL,ioos:station:DISL:MBLA:1,2015-02-04T10:00:00Z,30.4367,-88.0117,14.2,2.37,54.67,-9999.0,'1111122,1111122,1111122' 
DISL,ioos:station:DISL:MBLA:1,2015-02-04T10:30:00Z,30.4367,-88.0117,14.2,3.84,65.0,-9999.0,'1111122,1111122,1111122' 
DISL,ioos:station:DISL:MBLA:1,2015-02-04T11:00:00Z,30.4367,-88.0117,14.2,4.01,67.81,-9999.0,'1111122,1111122,1111122' 
DISL,ioos:station:DISL:MBLA:1,2015-02-04T11:30:00Z,30.4367,-88.0117,14.2,3.38,67.81,-9999.0,'1111122,1111122,1111122' 
DISL,ioos:station:DISL:MBLA:1,2015-02-04T12:00:00Z,30.4367,-88.0117,14.2,3.62,83.8,-9999.0,'1111122,1111122,1111122' 
DISL,ioos:station:DISL:MBLA:1,2015-02-04T12:30:00Z,30.4367,-88.0117,14.2,3.49,97.0,-9999.0,'1111122,1111122,1111122' 
DISL,ioos:station:DISL:MBLA:1,2015-02-04T13:00:00Z,30.4367,-88.0117,14.2,4.13,89.9,-9999.0,'1111122,1111122,1111122' 
DISL,ioos:station:DISL:MBLA:1,2015-02-04T13:30:00Z,30.4367,-88.0117,14.2,4.1,73.17,-9999.0,'1111122,1111122,1111122' 
DISL,ioos:station:DISL:MBLA:1,2015-02-04T14:00:00Z,30.4367,-88.0117,14.2,4.77,63.57,-9999.0,'1111122,1111122,1111122' 
DISL,ioos:station:DISL:MBLA:1,2015-02-04T14:30:00Z,30.4367,-88.0117,14.2,5.71,61.86,-9999.0,'1111122,1111122,1111122' 
DISL,ioos:station:DISL:MBLA:1,2015-02-04T15:00:00Z,30.4367,-88.0117,14.2,6.27,61.09,-9999.0,'1111122,1111122,1111122' 
DISL,ioos:station:DISL:MBLA:1,2015-02-04T15:30:00Z,30.4367,-88.0117,14.2,5.54,74.68,-9999.0,'1111122,1111122,1111122' 
DISL,ioos:station:DISL:MBLA:1,2015-02-04T16:00:00Z,30.4367,-88.0117,14.2,5.66,76.06,-9999.0,'1111122,1111122,1111122' 
DISL,ioos:station:DISL:MBLA:1,2015-02-04T16:30:00Z,30.4367,-88.0117,14.2,5.56,72.28,-9999.0,'1111122,1111122,1111122' 
DISL,ioos:station:DISL:MBLA:1,2015-02-04T17:00:00Z,30.4367,-88.0117,14.2,5.17,68.9,-9999.0,'1111122,1111122,1111122' 
DISL,ioos:station:DISL:MBLA:1,2015-02-04T17:30:00Z,30.4367,-88.0117,14.2,5.4,57.01,-9999.0,'1111122,1111122,1111122' 
DISL,ioos:station:DISL:MBLA:1,2015-02-04T18:00:00Z,30.4367,-88.0117,14.2,6.48,23.89,-9999.0,'1111122,1111122,1111122' 
DISL,ioos:station:DISL:MBLA:1,2015-02-04T18:30:00Z,30.4367,-88.0117,14.2,8.1,4.108,-9999.0,'1111122,1111122,1111122' 
DISL,ioos:station:DISL:MBLA:1,2015-02-04T19:00:00Z,30.4367,-88.0117,14.2,8.87,1.532,-9999.0,'1111122,1111122,1111122' 
DISL,ioos:station:DISL:MBLA:1,2015-02-04T19:30:00Z,30.4367,-88.0117,14.2,6.75,24.62,-9999.0,'1111122,1111122,1111122' 
DISL,ioos:station:DISL:MBLA:1,2015-02-04T20:00:00Z,30.4367,-88.0117,14.2,4.31,48.35,-9999.0,'1111122,1111122,1111122' 
DISL,ioos:station:DISL:MBLA:1,2015-02-04T20:30:00Z,30.4367,-88.0117,14.2,3.98,34.61,-9999.0,'1111122,1111122,1111122' 
DISL,ioos:station:DISL:MBLA:1,2015-02-04T21:00:00Z,30.4367,-88.0117,14.2,2.77,47.94,-9999.0,'1111122,1111122,1111122' 
DISL,ioos:station:DISL:MBLA:1,2015-02-04T21:30:00Z,30.4367,-88.0117,14.2,4.71,41.48,-9999.0,'1111122,1111122,1111122' 
DISL,ioos:station:DISL:MBLA:1,2015-02-04T22:00:00Z,30.4367,-88.0117,14.2,3.33,75.03,-9999.0,'1111122,1111122,1111122' 
DISL,ioos:station:DISL:MBLA:1,2015-02-04T22:30:00Z,30.4367,-88.0117,14.2,5.18,54.61,-9999.0,'1111122,1111122,1111122' 
DISL,ioos:station:DISL:MBLA:1,2015-02-04T23:00:00Z,30.4367,-88.0117,14.2,6.86,45.24,-9999.0,'1111122,1111122,1111122' 
DISL,ioos:station:DISL:MBLA:1,2015-02-04T23:30:00Z,30.4367,-88.0117,14.2,8.42,45.84,-9999.0,'1111122,1111122,1111122' 
DISL,ioos:station:DISL:MBLA:1,2015-02-05T00:00:00Z,30.4367,-88.0117,14.2,9.96,36.04,-9999.0,'1111122,1111122,1111122' 
DISL,ioos:station:DISL:MBLA:1,2015-02-05T00:30:00Z,30.4367,-88.0117,14.2,8.08,46.23,-9999.0,'1111122,1111122,1111122' 
DISL,ioos:station:DISL:MBLA:1,2015-02-05T01:00:00Z,30.4367,-88.0117,14.2,6.92,43.17,-9999.0,'1111122,1111122,1111122' 
DISL,ioos:station:DISL:MBLA:1,2015-02-05T01:30:00Z,30.4367,-88.0117,14.2,8.62,82.6,-9999.0,'1111122,1111122,1111122' 
DISL,ioos:station:DISL:MBLA:1,2015-02-05T02:00:00Z,30.4367,-88.0117,14.2,7.7,55.64,-9999.0,'1111122,1111122,1111122' 
DISL,ioos:station:DISL:MBLA:1,2015-02-05T02:30:00Z,30.4367,-88.0117,14.2,7.51,35.54,-9999.0,'1111122,1111122,1111122' 
DISL,ioos:station:DISL:MBLA:1,2015-02-05T03:00:00Z,30.4367,-88.0117,14.2,6.79,29.73,-9999.0,'1111122,1111122,1111122' 
DISL,ioos:station:DISL:MBLA:1,2015-02-05T03:30:00Z,30.4367,-88.0117,14.2,7.66,3.385,-9999.0,'1111122,1111122,1111122' 